Total_Precipitation_Accumulation
0.62 0.56 0.58 0.74 0.74 0.58 0.59 0.66 0.69 0.76 1.04 1.14 1.05 1.22 1.16 1.04 0.98 1.02 1.11 1.23 1.49 1.57 1.18 1.31 1.59 2.23 2.29 2.70 2.14 2.32 1.42 0.84 1.61 2.53 2.29 1.99 1.74 1.80 1.29 1.04 1.83 1.05 0.61 0.75 0.74 0.68 0.63
0.69 0.65 0.70 0.80 0.71 0.65 0.65 0.83 0.99 1.02 1.13 1.27 1.42 1.24 0.97 0.89 0.91 1.06 1.28 1.59 1.66 1.54 0.98 0.95 1.91 2.02 1.68 1.92 1.50 1.79 1.21 1.04 1.57 2.44 2.17 2.33 1.80 2.26 1.44 0.94 1.75 1.00 0.83 0.81 1.09 0.91 0.80
0.74 0.80 0.87 0.81 0.72 0.79 0.88 1.04 1.07 1.07 1.43 1.38 1.53 1.34 1.05 0.90 0.80 0.83 0.94 1.18 1.59 1.60 1.15 1.16 1.75 1.72 1.79 1.68 1.29 1.83 1.08 1.23 1.60 2.09 2.33 2.06 1.61 2.21 1.93 1.36 1.06 1.16 1.09 1.35 1.43 1.06 1.15
0.94 0.95 0.89 0.82 0.83 0.98 1.13 1.09 1.10 1.16 1.54 1.71 1.67 1.26 0.94 0.85 0.74 0.69 0.65 0.70 0.68 0.92 1.28 1.36 2.07 1.59 1.91 1.71 1.39 1.70 1.31 1.32 1.66 2.04 2.64 2.42 2.02 2.36 1.89 1.98 1.59 1.82 1.91 1.98 1.53 1.73 1.38
0.95 1.00 0.95 0.92 1.01 1.16 1.23 1.19 1.15 1.16 1.35 1.81 1.84 1.22 0.96 0.80 0.74 0.86 0.91 0.90 0.86 0.91 1.17 1.56 1.76 1.91 1.58 1.63 1.07 1.27 1.61 1.77 2.18 2.72 3.55 3.60 2.81 2.84 2.03 2.46 2.91 2.50 2.10 1.54 1.37 1.66 2.05
1.03 1.04 1.08 1.04 1.08 1.19 1.26 1.15 1.14 1.48 1.55 1.35 1.43 1.03 0.92 0.72 0.63 0.91 2.07 1.84 1.96 1.66 1.64 1.96 2.28 2.60 1.80 1.62 1.01 0.97 1.81 2.23 3.18 3.37 5.18 5.40 4.02 2.97 2.36 2.33 2.44 2.05 1.35 1.07 1.14 1.33 2.09
1.17 1.12 1.14 1.12 1.09 1.08 1.18 1.48 1.37 1.78 1.27 1.05 0.98 0.92 0.92 0.81 1.03 1.48 2.15 2.75 2.51 2.14 2.09 2.81 2.52 2.06 1.53 1.08 0.62 1.12 1.94 3.89 4.07 4.06 4.96 4.85 3.60 2.30 1.86 1.35 0.87 1.12 0.97 0.94 0.81 0.94 1.83
1.36 1.31 1.27 1.25 1.18 1.12 1.21 1.55 1.58 1.22 1.08 1.07 0.92 1.04 1.12 1.02 1.21 1.71 1.90 2.73 2.44 2.39 2.92 2.71 1.60 1.38 1.06 0.81 1.25 1.45 2.28 5.62 4.57 3.86 3.67 3.46 2.24 1.12 1.51 1.37 0.76 0.87 0.97 1.11 1.05 0.98 1.81
1.46 1.34 1.36 1.42 1.37 1.35 1.37 1.54 1.43 1.30 1.32 1.21 1.09 1.18 1.16 1.12 1.18 1.40 1.45 1.96 1.95 2.00 2.66 3.30 2.52 2.00 1.44 1.45 1.59 1.93 2.92 5.25 4.53 3.38 2.74 1.88 1.20 0.99 1.54 2.01 1.09 0.88 0.88 0.77 1.51 1.67 1.59
1.54 1.53 1.50 1.47 1.62 1.72 1.48 1.60 1.37 1.48 1.49 1.28 1.15 1.16 1.29 1.37 1.36 1.24 1.30 1.66 1.72 1.99 2.70 3.88 2.65 2.56 1.73 1.67 1.95 1.29 2.49 4.52 4.29 3.02 2.48 2.11 0.97 1.07 1.54 2.29 1.51 1.31 0.62 0.63 1.06 1.82 1.75
1.46 1.56 1.70 1.72 1.74 1.70 1.83 1.65 1.52 1.45 1.43 1.12 1.07 1.06 1.21 1.80 1.89 1.64 1.53 1.42 1.86 2.18 3.45 3.77 2.83 2.13 1.89 1.76 1.75 1.57 2.13 3.02 2.50 2.43 2.31 2.21 1.18 1.02 1.65 1.69 1.79 1.79 0.72 0.98 1.14 1.30 1.67
1.54 1.51 1.69 1.89 2.00 1.98 1.93 1.82 1.57 1.26 1.10 1.04 1.09 1.15 1.48 1.55 1.66 1.09 1.17 1.73 2.23 2.87 3.66 3.62 2.65 1.96 1.77 1.76 1.80 2.02 2.14 1.89 1.88 1.92 1.28 1.05 1.00 0.95 0.93 0.74 1.23 1.15 0.75 1.05 1.50 1.57 2.22
1.56 1.51 1.56 1.72 1.77 2.11 2.51 2.19 1.57 1.53 1.31 1.35 1.46 1.45 1.81 1.49 1.16 0.91 1.69 2.77 3.35 2.85 2.08 2.10 1.67 0.99 1.17 1.44 1.44 1.25 1.80 1.89 2.16 2.52 2.57 1.82 1.30 0.91 0.79 0.39 0.34 0.67 1.23 2.35 2.36 2.27 1.38
1.47 1.69 1.82 1.70 1.77 2.14 2.79 2.81 2.18 1.96 2.07 2.14 2.21 1.76 1.59 1.18 0.82 1.54 2.72 2.95 3.22 1.90 1.47 0.82 0.66 0.73 0.89 0.93 1.27 0.95 1.18 1.54 1.05 1.04 1.72 2.30 2.63 1.18 0.63 0.30 0.36 0.38 0.80 1.82 1.85 0.72 0.55
1.49 1.78 1.93 2.00 2.17 2.47 3.02 3.32 3.07 3.12 2.72 2.85 2.34 1.73 1.52 1.08 0.99 2.20 3.07 3.12 2.27 1.39 0.99 0.40 0.46 0.67 0.74 0.72 0.95 0.98 0.87 1.04 1.13 0.87 1.19 1.02 1.31 0.59 0.28 0.08 0.16 0.35 0.56 0.50 0.96 0.35 0.55
1.92 2.16 2.26 2.21 2.25 2.34 2.58 2.84 2.93 3.66 3.97 3.60 2.07 1.88 1.68 1.27 1.71 3.07 3.65 2.79 0.94 0.55 0.25 0.27 0.58 0.50 0.65 0.68 0.80 1.04 0.72 0.58 0.87 0.76 0.57 0.50 0.81 0.31 0.16 0.13 0.07 0.08 0.17 0.58 0.97 1.11 0.66
2.59 2.52 2.45 2.29 2.23 2.14 2.19 2.44 2.81 3.47 4.00 3.81 3.25 3.00 2.24 1.68 3.28 5.21 4.01 1.73 0.56 0.20 0.13 0.26 0.32 0.43 0.48 0.55 0.83 0.90 0.82 0.62 0.63 0.49 0.35 0.31 0.44 0.40 0.24 0.26 0.11 0.06 0.20 0.39 0.62 0.75 1.26
2.45 2.54 2.68 2.64 2.55 2.38 2.24 2.48 3.08 3.77 4.00 3.83 4.27 4.46 3.13 2.80 4.82 4.77 2.77 1.07 0.66 0.19 0.09 0.10 0.22 0.44 0.43 0.41 0.57 0.74 0.60 0.52 0.45 0.65 0.40 0.23 0.23 0.17 0.17 0.03 0.01 0.05 0.10 0.17 0.77 0.56 0.66
2.76 2.96 3.03 3.14 2.93 2.68 2.62 2.95 3.51 4.00 3.86 4.09 5.14 4.41 3.80 4.42 5.15 2.95 1.30 0.61 0.35 0.22 0.16 0.24 0.25 0.29 0.26 0.27 0.51 0.30 0.31 0.17 0.15 0.67 0.68 0.34 0.33 0.42 0.67 0.52 0.09 0.07 0.03 0.13 0.35 0.67 0.48
2.37 2.76 2.83 2.81 2.73 2.63 2.63 2.86 3.18 4.02 3.83 4.29 5.48 5.13 4.89 5.52 4.51 1.99 1.55 1.13 0.83 0.65 0.45 0.53 0.51 0.33 0.46 0.39 0.37 0.31 0.13 0.09 0.06 0.30 0.61 0.62 0.61 0.26 0.36 0.34 0.23 0.19 0.03 0.10 0.48 0.78 0.19
2.16 2.45 2.54 2.47 2.75 2.78 2.44 2.51 3.12 3.58 3.63 4.22 4.96 3.77 3.19 4.32 3.64 2.70 2.54 2.38 1.54 1.37 1.34 1.10 1.25 0.98 1.12 1.22 0.68 0.53 0.38 0.32 0.18 0.21 0.51 0.96 1.27 0.35 0.08 0.06 0.22 0.20 0.08 0.08 0.37 0.21 0.43
2.69 2.40 2.21 2.24 2.46 2.88 3.03 2.98 2.99 3.46 3.77 4.09 3.64 2.79 2.61 2.58 2.39 2.52 2.76 2.53 1.53 1.45 1.56 1.33 1.54 1.42 1.51 1.85 1.52 1.28 1.13 1.00 0.81 0.57 0.70 1.21 1.71 0.79 0.49 0.11 0.15 0.25 0.06 0.07 0.10 0.04 0.08
2.82 2.55 2.55 2.54 2.43 2.48 2.64 2.75 3.12 3.64 3.99 3.77 3.00 2.35 2.60 2.30 1.98 2.46 2.47 1.63 1.19 1.23 1.44 1.04 1.11 1.20 1.00 0.96 1.01 0.96 0.93 0.77 0.84 0.86 1.13 1.85 2.01 1.88 1.29 0.28 0.49 0.58 0.09 0.04 0.03 0.07 0.16
2.74 2.65 2.39 2.46 2.15 2.25 2.61 2.57 2.58 3.29 3.29 2.69 2.40 2.27 2.67 2.49 1.59 1.67 1.37 1.13 0.88 0.84 1.29 0.72 0.79 1.16 0.86 0.51 0.56 0.52 0.50 0.41 0.39 0.32 0.53 1.28 1.60 2.50 1.80 1.17 1.95 0.33 0.02 0.00 0.05 0.17 0.16
2.29 2.79 3.05 3.01 2.73 2.42 2.25 2.21 2.45 3.02 3.49 2.27 2.00 2.39 3.11 2.61 1.26 1.00 0.99 1.04 0.82 0.85 1.21 0.89 0.55 0.53 0.37 0.66 1.31 1.10 0.74 0.75 0.48 0.27 0.30 0.59 1.84 3.09 2.33 1.72 0.91 0.19 0.04 0.03 0.14 0.25 0.19
2.09 2.09 2.68 3.15 3.12 2.87 2.92 2.64 2.41 2.66 3.44 2.98 2.21 2.13 3.16 3.10 1.40 0.83 0.93 1.03 1.29 1.48 1.43 0.87 0.44 0.36 0.52 1.20 2.00 1.68 0.84 0.50 0.47 0.31 0.24 0.55 1.52 3.61 3.23 2.60 1.13 0.25 0.07 0.02 0.12 0.40 0.13
1.78 1.68 1.92 2.31 2.83 2.43 2.12 2.14 2.15 2.26 2.68 3.06 2.53 1.76 3.28 3.69 1.32 0.66 1.00 1.19 1.26 1.54 1.68 1.02 0.88 0.91 1.16 2.06 2.40 1.49 0.74 0.47 0.54 0.29 0.33 0.69 1.39 2.87 2.62 3.45 1.48 0.31 0.08 0.10 0.61 0.50 0.13
1.90 1.99 2.06 2.14 2.41 2.70 2.54 2.05 1.84 1.93 2.66 3.28 2.76 1.62 2.69 3.36 1.47 0.59 0.72 0.99 1.13 1.36 1.71 1.40 1.78 1.84 1.98 2.68 2.04 1.21 1.02 0.73 0.62 0.52 0.41 0.51 0.76 0.99 1.46 2.53 1.12 0.16 0.08 0.29 0.47 0.29 0.19
1.93 2.02 2.19 2.18 2.34 2.61 2.71 2.41 2.32 2.25 2.61 3.45 3.04 1.95 2.24 3.47 2.56 0.80 0.54 0.71 0.97 1.20 1.85 2.21 2.04 1.31 1.62 2.10 1.93 1.33 1.10 0.91 0.55 0.54 0.33 0.62 0.57 0.59 0.58 0.48 0.26 0.31 0.29 0.38 0.25 0.16 0.06